Probability
0 0 0 0 0 0 0 0 0 0 0 0 1 3 6 5 3 4 14 34 44 33 18 14 10 4 1 0 0 0 0 0 0 0 0 0 0 0 0 0 0 0 0 0 0 0 0 0 0
0 0 0 0 0 0 0 0 1 1 0 1 2 5 8 8 6 7 21 40 41 25 14 14 13 7 2 0 0 0 0 0 0 0 0 0 0 0 0 0 0 0 0 0 0 0 0 0 0
0 0 0 0 0 0 0 1 2 3 2 1 4 8 12 14 12 13 28 41 33 16 12 17 18 12 5 2 1 0 0 0 0 0 0 0 0 0 0 0 0 0 0 0 0 0 0 0 0
0 0 0 0 0 0 0 1 3 4 3 3 8 16 21 21 19 22 31 34 23 13 14 20 22 16 9 4 2 1 1 0 0 0 0 0 0 0 0 0 0 0 0 0 0 0 0 0 0
0 0 0 0 0 0 0 1 2 3 3 6 15 26 30 26 23 26 28 23 17 15 17 21 23 19 13 9 6 4 2 2 3 2 2 2 2 2 2 2 2 1 0 0 0 0 0 0 0
0 0 0 0 0 0 0 0 2 4 6 10 20 32 35 28 23 22 19 16 19 22 20 19 20 18 16 16 14 11 9 8 9 9 8 7 7 7 7 7 6 3 1 0 0 1 1 1 0
0 0 0 0 0 0 0 1 3 7 11 14 22 33 37 29 21 15 11 15 25 27 19 14 12 12 14 18 19 18 18 18 17 16 15 12 10 9 8 8 7 5 3 1 1 2 2 2 1
0 0 0 0 0 0 0 2 7 13 17 19 26 38 40 30 19 13 13 20 30 28 17 8 5 6 8 11 15 19 20 21 20 20 17 13 8 5 5 6 7 8 6 3 3 4 4 3 2
0 0 0 0 0 0 1 5 10 17 21 26 34 42 41 31 23 21 23 27 31 28 17 9 7 6 6 7 11 12 14 17 19 19 18 14 7 3 4 8 14 15 10 6 6 7 6 4 2
0 0 0 0 0 1 4 8 13 18 22 28 36 39 36 32 30 32 33 33 31 26 20 15 15 13 11 13 13 9 10 16 19 20 21 16 9 7 9 18 26 23 14 9 9 10 8 4 1
0 0 0 0 1 4 9 15 18 19 19 24 31 33 32 32 34 37 39 37 33 28 24 23 23 21 22 25 23 16 18 24 23 23 26 22 17 18 23 32 37 30 18 10 11 12 7 2 0
0 0 0 0 2 7 13 18 19 19 18 21 26 30 31 31 33 37 41 40 36 32 29 26 27 30 36 41 37 31 34 36 32 32 36 35 33 34 39 45 45 35 22 13 12 11 6 2 1
0 0 0 1 3 7 10 12 13 15 17 19 23 26 28 29 31 35 39 40 37 35 32 29 32 39 48 53 50 43 43 43 40 41 45 45 45 46 48 48 44 35 25 19 16 12 8 6 6
0 0 0 0 1 3 4 5 6 9 13 16 18 20 21 23 26 29 34 37 37 37 35 33 37 46 53 56 54 48 45 44 43 45 45 45 47 49 48 44 40 33 26 23 19 15 13 12 12
0 0 0 0 0 0 1 2 4 7 12 15 15 15 17 19 22 24 28 32 35 38 39 38 41 48 52 52 51 49 46 44 44 44 43 43 45 49 47 42 37 33 28 24 21 19 18 15 12
0 0 0 0 0 0 1 3 5 8 12 15 14 14 15 17 19 21 23 26 31 38 43 43 44 49 51 49 50 49 46 44 44 43 44 43 44 48 49 43 38 35 32 26 22 22 21 17 13
0 0 0 0 0 0 2 5 7 7 9 12 13 13 15 17 18 20 22 25 30 39 45 46 46 48 49 48 49 49 46 43 42 42 42 42 43 47 49 45 41 38 34 27 22 21 21 18 16
0 0 0 0 0 1 3 5 7 7 8 11 14 14 16 19 19 19 20 24 29 36 41 45 46 47 48 48 49 47 43 42 41 40 40 40 40 44 46 44 41 37 31 25 20 18 18 16 15
0 0 1 0 0 1 3 4 5 6 8 12 15 17 19 21 20 18 19 24 28 30 35 40 44 46 48 49 48 44 40 38 37 36 35 35 36 36 37 36 36 31 25 21 19 16 14 13 13
0 0 0 0 0 1 2 4 5 6 8 12 16 17 18 20 19 17 19 24 27 27 29 33 37 40 43 45 45 42 38 35 33 32 31 30 29 27 25 26 28 26 22 20 19 16 13 11 11
0 0 0 0 0 1 2 5 7 7 8 13 18 18 18 20 21 17 17 19 21 22 24 27 29 31 34 37 39 39 36 34 34 33 31 28 23 18 17 17 20 21 21 20 19 15 12 10 8
0 0 0 0 0 1 2 5 10 13 14 18 22 23 21 21 19 14 11 11 12 14 17 21 23 25 28 30 32 33 32 32 32 31 28 25 19 13 10 11 14 16 18 18 17 14 13 11 10
0 0 0 0 0 0 1 3 10 17 20 23 26 25 22 17 12 8 7 7 7 7 9 13 16 19 23 25 26 26 25 25 26 25 23 21 16 10 7 8 11 13 15 15 14 14 15 15 13
0 0 0 0 0 0 0 1 8 16 20 25 27 25 20 13 7 5 6 6 5 3 4 5 8 12 16 19 19 19 19 20 20 19 18 17 15 11 8 8 10 12 13 13 13 13 15 16 16
0 0 0 0 0 0 0 1 6 12 17 23 28 25 20 13 7 4 5 5 4 2 3 3 4 6 10 12 13 13 14 14 14 14 14 14 13 11 9 9 10 11 11 11 12 12 13 13 14
0 0 0 0 0 0 0 2 7 11 15 21 25 23 21 16 8 4 3 3 3 1 2 2 2 3 5 7 8 8 8 8 9 9 10 11 10 8 7 7 8 9 9 10 10 11 11 11 11
0 0 0 0 0 0 1 3 7 11 15 18 20 21 21 17 11 5 3 3 3 1 1 1 1 1 1 3 4 4 4 4 5 6 7 7 6 5 4 4 5 7 7 8 9 10 10 9 9
0 0 0 0 0 0 0 2 5 9 14 17 18 19 20 18 13 7 5 4 3 2 1 0 0 0 0 0 1 1 1 2 3 4 3 3 3 1 1 3 4 5 6 7 8 9 8 7 5
0 0 0 0 0 0 0 1 4 9 14 18 18 19 20 18 13 8 6 5 4 2 1 0 0 0 0 0 0 0 0 1 2 2 1 1 1 0 0 1 3 4 5 6 6 5 4 2 1
0 0 0 0 0 0 0 2 6 12 16 19 19 19 21 18 12 7 6 6 5 2 0 0 0 0 0 0 0 0 0 0 1 1 0 0 0 0 0 0 1 3 3 3 3 2 1 0 0
Wind_Speed
9 12 10 8 8 10 14 12 4 5 6 7 7 9 12 13 10 9 8 17 22 19 17 16 15 15 14 14 13 13 13 12 12 11 11 11 11 10 10 10 10 9 9 9 9 9 9 9 9
10 12 10 8 10 12 11 10 6 7 10 8 6 9 12 14 12 13 13 19 21 18 15 15 15 14 14 13 13 13 13 13 12 11 10 10 10 9 9 9 9 9 8 9 9 8 9 8 9
11 15 9 9 14 14 9 3 6 8 9 5 5 8 10 11 10 12 15 20 19 16 15 16 15 14 14 13 13 13 13 13 12 11 10 10 9 8 8 8 8 8 8 8 8 8 8 8 7
8 9 8 10 16 16 9 1 5 7 7 6 5 9 10 9 11 14 18 19 18 17 16 16 15 15 14 13 13 13 12 12 12 11 10 9 9 8 7 7 7 7 7 7 7 7 7 7 6
10 8 12 13 16 13 6 4 3 4 6 6 7 12 10 9 17 17 17 18 17 17 16 15 15 15 14 13 13 12 12 12 11 11 10 9 8 7 7 7 7 7 6 6 7 7 6 6 6
8 9 12 14 15 11 4 4 3 6 6 7 10 13 10 7 13 15 16 15 17 18 17 15 15 15 14 13 12 11 11 11 10 10 9 9 8 7 7 7 6 6 6 6 6 6 6 5 5
11 11 14 16 13 9 4 3 5 5 4 5 8 12 10 7 9 14 15 15 16 17 16 14 13 13 13 12 11 11 10 10 10 9 9 9 8 8 8 7 7 6 6 6 6 6 6 5 5
12 11 16 16 11 6 5 4 2 2 2 3 5 10 11 8 7 11 13 14 16 15 13 13 13 12 11 11 11 11 10 9 9 9 9 9 8 8 8 7 7 7 7 7 7 7 7 6 6
14 12 14 14 8 4 6 6 5 4 6 8 10 13 16 11 9 10 12 12 12 12 10 10 10 9 9 11 11 10 10 8 8 8 8 8 6 7 7 8 9 8 8 8 8 8 8 7 8
11 12 14 6 1 3 5 5 7 7 8 10 14 16 16 12 11 11 10 11 11 10 9 8 9 7 7 7 8 6 6 7 6 5 7 5 4 3 5 7 10 9 8 8 9 9 9 8 6
14 15 7 2 3 3 3 3 4 7 8 8 10 14 14 10 8 10 10 9 9 8 7 7 7 5 5 5 5 3 3 4 4 3 3 3 2 2 2 3 5 6 7 6 7 7 6 6 4
11 8 4 1 2 1 3 5 7 11 10 10 11 10 11 10 8 10 9 8 8 9 7 5 6 5 5 5 3 3 2 3 3 3 3 2 1 1 1 2 4 3 3 3 3 4 5 5 5
10 5 3 1 3 3 5 6 7 10 12 12 10 9 9 9 9 11 9 8 9 8 7 6 5 5 5 4 2 3 2 2 2 2 2 1 1 1 1 0 1 2 2 2 3 4 5 5 5
8 7 6 6 6 5 6 8 7 8 11 11 10 9 9 11 10 10 8 9 8 7 6 6 6 7 5 4 2 2 2 1 2 2 2 1 1 0 1 1 1 2 2 2 3 4 3 3 3
7 7 8 9 9 9 9 9 10 11 13 11 11 10 11 11 11 10 8 9 7 7 6 6 6 7 5 3 3 2 2 2 3 2 2 2 1 1 1 1 1 2 2 2 2 3 2 3 3
9 11 11 11 12 11 11 10 12 11 11 11 10 10 11 10 11 10 10 9 8 7 7 7 6 6 5 4 2 2 2 2 2 2 2 2 2 2 2 1 1 2 2 1 2 2 1 1 2
12 14 12 11 13 12 10 9 12 10 10 10 10 10 10 10 10 9 9 9 7 7 7 7 6 6 4 3 2 2 2 3 2 2 2 2 2 2 2 1 1 2 1 1 2 1 1 1 1
12 13 12 11 11 11 10 11 13 10 10 10 10 10 10 10 10 9 9 9 7 7 7 6 6 6 4 3 2 2 3 3 3 3 3 3 3 3 2 1 1 2 2 1 1 2 1 1 1
9 9 11 10 9 9 9 13 14 12 10 10 9 9 9 11 11 9 8 8 8 7 7 7 6 6 4 3 2 2 2 2 2 3 4 4 4 4 3 3 2 1 1 1 1 1 1 1 1
7 6 7 8 9 7 7 11 14 13 12 11 11 10 10 10 10 8 8 9 9 8 8 7 7 6 5 4 2 1 2 2 2 2 3 4 4 4 4 4 3 2 1 1 2 1 1 1 2
7 5 3 4 7 9 10 11 13 13 10 10 10 10 10 10 9 9 9 9 8 8 8 7 8 7 6 5 3 2 1 1 2 2 3 4 4 4 4 4 4 3 2 2 2 1 2 2 2
7 5 5 7 9 7 9 7 11 13 11 10 9 10 10 10 10 9 9 8 8 8 8 8 8 7 7 6 5 5 4 3 3 2 3 3 3 4 5 5 4 4 3 2 2 2 2 2 2
6 6 8 9 10 9 8 7 7 12 11 10 9 9 11 11 10 9 9 8 8 8 8 7 7 7 7 6 6 5 4 3 3 3 3 3 3 4 4 4 4 4 3 3 3 2 2 2 2
6 8 8 8 8 10 5 6 5 8 12 12 10 9 10 11 11 10 9 8 7 8 7 7 7 7 6 6 5 5 4 4 4 4 3 2 2 3 5 4 4 3 3 4 3 2 2 1 2
8 7 4 5 5 6 5 6 3 9 11 14 15 14 12 11 10 9 8 8 7 7 7 7 7 6 6 6 5 5 4 4 4 4 3 3 3 3 4 5 4 3 3 3 3 2 2 2 2
8 9 6 6 5 5 4 3 2 6 9 14 15 14 13 11 10 9 8 8 7 7 7 6 6 6 5 6 5 5 5 4 4 5 4 4 3 3 4 4 4 4 4 4 3 3 2 2 2
8 8 9 9 8 5 3 5 5 7 9 13 14 13 13 11 10 10 9 8 7 7 6 6 6 5 5 5 5 5 5 5 5 4 4 3 3 3 4 4 4 4 4 4 3 2 3 3 2
8 7 5 6 6 6 3 4 5 8 9 11 12 12 12 12 11 10 8 8 7 7 6 6 6 5 5 5 5 5 5 5 4 4 5 4 4 4 4 4 4 4 4 4 3 3 3 3 3
7 7 6 7 6 5 4 1 5 8 9 11 11 12 12 12 11 10 9 8 7 7 7 5 5 5 5 6 6 5 5 5 5 5 5 4 4 4 5 5 4 4 5 5 4 4 4 4 3
8 7 6 6 6 6 4 1 5 8 9 11 12 12 12 12 11 10 9 8 7 7 6 5 5 5 5 5 5 5 5 5 5 5 5 5 5 4 5 5 5 5 5 5 5 5 5 5 4
Wind_Direction
257 256 250 254 242 240 246 245 182 125 104 76 59 72 72 72 84 105 122 109 112 119 125 126 127 132 135 137 137 136 134 132 130 129 126 122 117 113 111 109 108 109 111 113 114 115 115 113 111
262 250 244 244 247 242 241 229 168 115 95 93 90 96 87 80 92 109 112 110 114 121 130 125 127 131 135 137 138 138 138 137 136 135 133 129 125 122 119 118 116 114 115 117 118 121 122 121 121
260 257 248 240 242 252 254 187 129 111 106 122 118 94 84 87 93 107 114 115 117 123 122 121 127 128 132 136 139 140 141 141 141 140 139 135 132 130 127 127 125 122 122 123 124 125 126 128 131
241 226 237 245 244 241 243 168 123 132 131 146 126 95 83 95 106 115 118 118 122 126 122 125 127 127 129 133 137 140 141 143 144 144 144 142 141 139 137 137 134 132 132 133 132 132 133 138 143
238 239 232 246 250 246 208 122 131 174 159 144 120 97 79 81 106 118 120 125 130 126 124 128 125 125 129 133 136 140 142 144 145 146 146 146 147 147 148 146 144 144 146 146 144 144 146 152 157
225 231 237 242 242 238 200 140 187 219 167 142 129 111 98 105 117 126 126 133 129 125 125 126 126 128 130 133 134 136 139 142 144 145 147 150 153 156 158 156 153 154 156 157 156 155 158 164 174
242 245 248 249 243 219 182 164 203 221 177 150 127 113 112 123 128 128 130 128 121 121 127 137 137 134 132 130 131 132 135 140 143 146 149 156 162 168 171 169 169 170 172 174 172 169 173 180 192
244 264 263 258 249 210 159 184 189 159 121 87 95 118 125 127 138 130 124 117 117 121 131 139 143 143 147 142 138 137 137 142 147 152 159 164 171 180 184 182 182 185 188 190 188 186 189 196 206
243 255 260 254 238 176 159 176 142 104 93 79 81 105 124 136 142 128 121 115 114 116 125 135 138 146 155 150 146 149 151 152 156 163 170 176 189 191 191 203 181 190 197 198 196 197 199 203 213
228 244 251 272 310 152 160 168 152 143 115 96 98 108 125 144 144 130 121 118 117 121 124 128 129 141 147 141 139 161 169 160 180 176 176 195 210 203 199 184 177 191 199 205 204 206 208 215 214
227 244 262 343 16 37 99 104 100 116 97 95 111 122 132 139 129 116 112 113 119 112 104 115 120 125 129 121 147 162 166 150 175 178 180 209 221 209 191 159 171 193 204 212 204 207 219 221 225
236 242 265 207 77 75 81 78 77 81 97 102 108 113 121 119 106 95 98 110 104 98 92 95 113 112 112 118 145 143 142 142 169 163 174 202 219 243 176 164 176 193 206 215 209 219 227 234 239
234 222 214 178 149 146 121 103 95 93 96 102 102 103 97 91 92 88 82 83 86 83 79 74 74 87 80 83 89 103 104 135 139 124 153 130 155 277 303 229 195 205 209 218 229 229 232 236 242
208 200 188 188 175 164 157 140 123 121 117 119 115 109 102 92 85 79 81 79 73 74 69 70 69 72 68 69 67 70 84 87 85 80 81 50 34 3 302 261 239 246 223 226 233 237 234 240 246
207 191 191 191 186 182 180 163 137 136 132 126 120 111 96 88 88 87 82 80 76 72 64 65 77 72 69 61 46 62 55 61 63 68 68 57 16 360 322 300 278 286 278 254 254 254 237 231 243
206 203 200 191 192 186 201 165 135 141 138 134 127 115 100 91 84 81 77 70 59 65 64 53 61 66 67 63 38 44 46 51 55 44 41 49 14 357 310 290 285 297 286 264 249 248 248 249 235
207 209 199 183 192 186 203 151 143 158 148 141 134 123 110 100 91 82 78 74 64 57 60 58 50 57 57 69 66 52 56 47 44 41 32 20 4 354 323 305 318 316 307 290 268 244 219 226 231
211 210 191 189 190 194 182 150 154 166 159 149 138 130 120 107 96 88 81 79 71 62 59 58 53 46 43 56 72 62 54 53 46 47 30 18 0 353 346 314 354 338 323 305 299 285 238 205 198
247 215 188 179 178 206 184 160 161 165 164 151 147 138 127 115 108 100 91 81 69 60 60 55 51 44 39 37 35 47 51 42 43 47 37 29 16 1 357 345 341 322 311 308 301 273 250 219 177
256 234 188 163 171 202 196 176 166 172 175 162 154 147 138 125 111 99 90 81 71 57 50 52 44 42 40 36 32 54 66 57 50 41 46 28 19 8 2 7 354 351 339 327 321 330 274 246 200
247 246 229 189 195 202 209 197 174 172 172 159 151 145 139 130 118 107 93 80 73 63 51 47 41 35 35 27 34 49 62 66 47 43 49 34 23 20 13 7 359 354 352 338 319 317 268 248 234
239 248 234 215 218 219 215 221 191 176 175 162 152 147 138 126 116 107 96 85 77 71 63 56 48 40 35 32 37 35 38 39 25 25 42 44 36 24 19 10 3 356 351 346 324 328 291 251 243
234 233 237 238 238 246 222 235 196 169 178 171 159 150 136 126 118 109 98 90 84 77 69 60 53 47 40 39 42 37 34 24 19 21 31 32 40 30 22 14 4 356 351 346 333 330 309 285 269
244 240 245 255 254 248 258 252 201 185 185 167 151 142 135 127 120 113 107 97 84 77 72 63 57 52 44 44 47 44 36 27 24 20 15 15 36 33 22 13 5 359 355 347 339 330 321 296 280
250 253 251 255 261 264 281 265 191 175 163 154 153 153 145 133 127 124 115 101 89 79 73 66 62 57 46 41 41 35 30 36 33 16 18 19 29 29 17 13 2 356 352 349 346 345 343 334 305
233 249 251 256 245 243 235 256 119 125 131 140 143 144 139 136 132 125 112 102 92 83 74 70 64 58 49 45 41 34 25 28 32 31 26 26 22 21 13 9 2 356 355 356 357 357 347 344 329
245 247 263 275 275 263 193 155 140 122 126 131 138 142 141 140 132 123 114 107 100 92 80 73 68 60 54 46 43 43 36 32 29 28 26 25 19 17 15 9 2 360 358 354 1 5 -0 1 7
249 264 272 276 278 282 241 175 159 154 156 144 144 146 144 139 130 123 118 112 103 97 88 76 69 59 52 48 39 42 36 33 30 31 32 29 23 17 6 6 4 8 8 5 7 12 14 18 17
252 256 273 285 292 295 295 54 133 161 162 156 151 149 147 138 132 129 125 118 111 105 98 90 79 68 58 52 45 38 31 31 35 35 29 26 22 17 10 4 11 19 16 11 14 17 21 26 26
270 261 263 270 284 285 294 81 118 146 167 156 149 144 137 130 128 128 126 121 117 109 99 88 78 68 63 61 56 48 41 37 37 33 27 24 21 19 20 18 16 22 21 15 21 21 28 29 30